Location: Pasadena, ca
(34.1243°N, 118.1037°W)
Time: 09:49:24
(UTC-08:00)

ISS - Pass Details

Date: 18 November 2017
Orbit: 402 x 407 km, 51.6° (Epoch: 19 November)

Event Time Altitude Azimuth Distance (km) Brightness Sun altitude
Exits shadow 04:14:48 18° 71° (ENE) 1,058 -1.1 -27.5°
Drops below altitude 10° 04:16:09 10° 91° (E) 1,447 0.0 -27.2°
Sets 04:18:29 0° 106° (ESE) 2,303 1.3 -26.8°
